Find WHDW 03-06

NORAD ID: 63692 Int'l Des: 2025-086 Owner: ZXW Country: CN Constellation: xingwang operational
LEOCIRCULARPOLARONEWEB_TYPE

Live Position

Loading 3D Globe...

About WHDW 03-06

Description loading...

Upcoming Passes

Passes for default location (London). Set your location on the main map for personalized predictions.

Altitude History

Loading altitude history...

Two-Line Element Set

1 63692U 25086F 26106.95143060 .00000072 00000-0 13281-3 0 9997
2 63692 86.5052 333.6783 0002030 79.1797 280.9565 13.24412150 46752
Epoch: Apr 16, 2026 • Age: 11 hours

Current Status

Altitude 1169.7 km
Velocity 7.27 km/s
Sub-Earth Point 6.34°N, 17.8°W
Launch Date Apr 28, 2025
Age 0.9 years
Type other

Technical Details

Classification Payload
Mass 800.00 kg
Dry Mass 800.00 kg
Total Mass 800.00 kg
Length 3.00 m
Diameter 1.00 m
Span 10.00 m
Shape Box + 2 Pan
Manufacturer CAST
Bus Type Xingwang CL
Phase Status In Orbit
Owner/State ZXW/CN

Most Searched